• In Portugal
  • List of Countries
  • For 7 days
  • Water Temperature
  • Satellite Maps
  • Weather Map
  • Weather Widgets
  • user-avatar
    Login

    Hourly Weather São Luís

    Today, 18 August, Friday

    Time Temperature Precipitation Wind Pressure Humidity
    00:00 +27°C° 0 mm 3 mps 758 mmHg 84%
    01:00 +27°C° 0 mm 3 mps 758 mmHg 85%
    02:00 +27°C° 0 mm 3 mps 758 mmHg 85%
    03:00 +27°C° 0 mm 2 mps 758 mmHg 85%
    04:00 +27°C° 0.1 mm 2 mps 758 mmHg 86%
    05:00 +26°C° 0.1 mm 2 mps 758 mmHg 87%
    06:00 +26°C° 0.1 mm 2 mps 758 mmHg 87%
    07:00 +28°C° 0 mm 3 mps 758 mmHg 80%
    08:00 +30°C° 0 mm 3 mps 759 mmHg 72%
    09:00 +31°C° 0 mm 3 mps 759 mmHg 65%
    10:00 +33°C° 0.1 mm 3 mps 759 mmHg 61%
    11:00 +34°C° 0.1 mm 3 mps 758 mmHg 57%
    12:00 +35°C° 0.1 mm 3 mps 758 mmHg 52%
    13:00 +35°C° 0.1 mm 3 mps 758 mmHg 52%
    14:00 +35°C° 0.1 mm 3 mps 757 mmHg 52%
    15:00 +35°C° 0.1 mm 3 mps 757 mmHg 52%
    16:00 +34°C° 0 mm 3 mps 756 mmHg 59%
    17:00 +32°C° 0 mm 4 mps 756 mmHg 65%
    18:00 +30°C° 0 mm 4 mps 756 mmHg 72%
    19:00 +29°C° 0 mm 4 mps 757 mmHg 75%
    20:00 +29°C° 0 mm 4 mps 757 mmHg 79%
    21:00 +28°C° 0 mm 4 mps 757 mmHg 82%
    22:00 +28°C° 0 mm 4 mps 758 mmHg 83%
    23:00 +28°C° 0 mm 4 mps 758 mmHg 84%

    Tomorrow, 19 August, Saturday

    Time Temperature Precipitation Wind Pressure Humidity
    00:00 +28°C° 0 mm 4 mps 758 mmHg 84%
    01:00 +28°C° 0 mm 4 mps 758 mmHg 85%
    02:00 +28°C° 0 mm 4 mps 757 mmHg 85%
    03:00 +28°C° 0 mm 3 mps 757 mmHg 85%
    04:00 +27°C° 0.5 mm 3 mps 757 mmHg 86%
    05:00 +27°C° 0.5 mm 3 mps 757 mmHg 87%
    06:00 +27°C° 0.5 mm 3 mps 757 mmHg 87%
    07:00 +28°C° 0.6 mm 4 mps 758 mmHg 81%
    08:00 +29°C° 0.6 mm 4 mps 758 mmHg 75%
    09:00 +30°C° 0.6 mm 5 mps 759 mmHg 69%
    10:00 +33°C° 0.5 mm 4 mps 759 mmHg 63%
    11:00 +34°C° 0.5 mm 4 mps 758 mmHg 57%
    12:00 +35°C° 0.5 mm 4 mps 758 mmHg 51%
    13:00 +35°C° 0.1 mm 4 mps 757 mmHg 53%
    14:00 +35°C° 0.1 mm 4 mps 757 mmHg 54%
    15:00 +34°C° 0.1 mm 4 mps 756 mmHg 56%
    16:00 +33°C° 0 mm 5 mps 756 mmHg 62%
    17:00 +32°C° 0 mm 5 mps 756 mmHg 68%
    18:00 +29°C° 0 mm 5 mps 756 mmHg 74%
    19:00 +29°C° 0 mm 5 mps 757 mmHg 76%
    20:00 +29°C° 0 mm 5 mps 757 mmHg 78%
    21:00 +28°C° 0 mm 5 mps 758 mmHg 80%
    22:00 +28°C° 0 mm 5 mps 758 mmHg 81%
    23:00 +28°C° 0 mm 5 mps 758 mmHg 82%

    Day after tomorrow, 20 August, Sunday

    Time Temperature Precipitation Wind Pressure Humidity
    00:00 +28°C° 0 mm 5 mps 758 mmHg 83%
    01:00 +28°C° 0.1 mm 5 mps 758 mmHg 83%
    02:00 +28°C° 0.1 mm 5 mps 758 mmHg 84%
    03:00 +28°C° 0.1 mm 5 mps 757 mmHg 84%
    04:00 +28°C° 0 mm 5 mps 757 mmHg 84%
    05:00 +28°C° 0 mm 5 mps 758 mmHg 84%
    06:00 +28°C° 0 mm 5 mps 758 mmHg 83%
    07:00 +29°C° 0 mm 5 mps 759 mmHg 78%
    08:00 +30°C° 0 mm 5 mps 759 mmHg 72%
    09:00 +32°C° 0 mm 5 mps 760 mmHg 67%
    10:00 +33°C° 0 mm 5 mps 760 mmHg 62%
    11:00 +34°C° 0 mm 5 mps 759 mmHg 57%
    12:00 +35°C° 0 mm 4 mps 759 mmHg 52%
    13:00 +35°C° 0 mm 5 mps 758 mmHg 53%
    14:00 +35°C° 0 mm 5 mps 758 mmHg 54%
    15:00 +34°C° 0 mm 5 mps 757 mmHg 55%
    16:00 +33°C° 0 mm 5 mps 757 mmHg 60%
    17:00 +32°C° 0 mm 5 mps 758 mmHg 65%
    18:00 +29°C° 0 mm 4 mps 758 mmHg 70%
    19:00 +29°C° 0 mm 4 mps 759 mmHg 73%
    20:00 +28°C° 0 mm 4 mps 759 mmHg 76%
    21:00 +28°C° 0 mm 4 mps 760 mmHg 79%
    22:00 +28°C° 0 mm 4 mps 760 mmHg 80%
    23:00 +28°C° 0 mm 4 mps 760 mmHg 81%

    21 August, Monday

    Time Temperature Precipitation Wind Pressure Humidity
    00:00 +27°C° 0 mm 4 mps 760 mmHg 81%
    01:00 +27°C° 0 mm 4 mps 759 mmHg 82%
    02:00 +27°C° 0 mm 4 mps 759 mmHg 83%
    03:00 +27°C° 0 mm 4 mps 758 mmHg 84%
    04:00 +27°C° 0 mm 4 mps 758 mmHg 84%
    05:00 +27°C° 0 mm 4 mps 759 mmHg 85%
    06:00 +27°C° 0 mm 4 mps 759 mmHg 86%
    07:00 +28°C° 0.1 mm 4 mps 760 mmHg 82%
    08:00 +29°C° 0.1 mm 4 mps 761 mmHg 78%
    09:00 +30°C° 0.1 mm 4 mps 761 mmHg 74%
    10:00 +32°C° 0 mm 4 mps 761 mmHg 67%
    11:00 +34°C° 0 mm 4 mps 760 mmHg 60%
    12:00 +35°C° 0 mm 3 mps 760 mmHg 53%
    13:00 +35°C° 0 mm 4 mps 759 mmHg 52%
    14:00 +36°C° 0 mm 4 mps 758 mmHg 51%
    15:00 +36°C° 0 mm 4 mps 757 mmHg 50%
    16:00 +34°C° 0 mm 4 mps 757 mmHg 58%
    17:00 +32°C° 0 mm 4 mps 758 mmHg 66%
    18:00 +29°C° 0 mm 4 mps 758 mmHg 74%
    19:00 +29°C° 0 mm 3 mps 758 mmHg 77%
    20:00 +28°C° 0 mm 3 mps 759 mmHg 80%
    21:00 +28°C° 0 mm 3 mps 759 mmHg 83%
    22:00 +27°C° 0 mm 3 mps 759 mmHg 84%
    23:00 +27°C° 0 mm 3 mps 759 mmHg 85%

    22 August, Tuesday

    Time Temperature Precipitation Wind Pressure Humidity
    00:00 +27°C° 0 mm 3 mps 759 mmHg 87%
    01:00 +27°C° 0 mm 3 mps 759 mmHg 87%
    02:00 +27°C° 0 mm 3 mps 758 mmHg 88%
    03:00 +27°C° 0 mm 3 mps 758 mmHg 89%
    04:00 +27°C° 0 mm 3 mps 758 mmHg 87%
    05:00 +27°C° 0 mm 3 mps 758 mmHg 86%
    06:00 +27°C° 0 mm 3 mps 759 mmHg 85%
    07:00 +28°C° 0.5 mm 3 mps 759 mmHg 80%
    08:00 +30°C° 0.5 mm 4 mps 759 mmHg 74%
    09:00 +32°C° 0.5 mm 4 mps 760 mmHg 69%
    10:00 +33°C° 0.7 mm 4 mps 759 mmHg 63%
    11:00 +34°C° 0.7 mm 4 mps 759 mmHg 57%
    12:00 +36°C° 0.7 mm 4 mps 758 mmHg 51%
    13:00 +35°C° 0.2 mm 4 mps 758 mmHg 52%
    14:00 +35°C° 0.2 mm 4 mps 757 mmHg 53%
    15:00 +35°C° 0.2 mm 3 mps 757 mmHg 54%
    16:00 +33°C° 0.2 mm 3 mps 757 mmHg 61%
    17:00 +31°C° 0.2 mm 3 mps 757 mmHg 68%
    18:00 +29°C° 0.2 mm 3 mps 757 mmHg 75%
    19:00 +29°C° 0 mm 3 mps 757 mmHg 78%
    20:00 +28°C° 0 mm 3 mps 758 mmHg 82%
    21:00 +28°C° 0 mm 3 mps 758 mmHg 85%
    22:00 +28°C° 0 mm 4 mps 758 mmHg 86%
    23:00 +27°C° 0 mm 4 mps 758 mmHg 86%

    23 August, Wednesday

    Time Temperature Precipitation Wind Pressure Humidity
    00:00 +27°C° 0 mm 4 mps 758 mmHg 87%
    01:00 +27°C° 0.6 mm 4 mps 758 mmHg 88%
    02:00 +27°C° 0.6 mm 3 mps 757 mmHg 90%
    03:00 +27°C° 0.6 mm 3 mps 757 mmHg 91%
    04:00 +26°C° 1.2 mm 3 mps 758 mmHg 90%
    05:00 +26°C° 1.2 mm 3 mps 758 mmHg 89%
    06:00 +26°C° 1.2 mm 4 mps 758 mmHg 88%
    07:00 +27°C° 0.2 mm 4 mps 759 mmHg 81%
    08:00 +29°C° 0.2 mm 4 mps 759 mmHg 73%
    09:00 +30°C° 0.2 mm 4 mps 759 mmHg 66%
    10:00 +33°C° 0 mm 3 mps 759 mmHg 59%
    11:00 +34°C° 0 mm 3 mps 758 mmHg 52%
    12:00 +36°C° 0 mm 3 mps 758 mmHg 45%
    13:00 +36°C° 0 mm 3 mps 757 mmHg 46%
    14:00 +36°C° 0 mm 3 mps 757 mmHg 46%
    15:00 +36°C° 0 mm 3 mps 756 mmHg 46%
    16:00 +34°C° 0 mm 3 mps 756 mmHg 53%
    17:00 +31°C° 0 mm 3 mps 756 mmHg 61%
    18:00 +30°C° 0 mm 3 mps 756 mmHg 68%
    19:00 +29°C° 0 mm 4 mps 757 mmHg 72%
    20:00 +28°C° 0 mm 4 mps 757 mmHg 76%
    21:00 +28°C° 0 mm 4 mps 758 mmHg 80%
    22:00 +28°C° 0 mm 4 mps 758 mmHg 79%
    23:00 +28°C° 0 mm 4 mps 758 mmHg 78%
    Show more